Location: Artiguedieu
(43.5000°N, 0.5454°E)
Time: 09:27:34
(UTC+00:00)

Explorer 7 - Pass Details

Date: 08 August 2021
Orbit: 484 x 676 km, 50.3° (Epoch: 22 September)

Event Time Altitude Azimuth Distance (km) Brightness Sun altitude
Rises 00:43:21 0° 185° (S) 2,548 - -29.7°
Reaches altitude 10° 00:46:51 10° 151° (SSE) 1,658 - -29.6°
Maximum altitude 00:48:06 11° 131° (SE) 1,572 - -29.5°
Drops below altitude 10° 00:49:21 10° 111° (ESE) 1,660 - -29.5°
Exits shadow 00:51:54 - 83° (E) 2,253 10.2 -29.4°
Sets 00:52:51 0° 77° (ENE) 2,553 10.6 -29.3°
